Wetbulb
74.02 74.77 76.19 76.47 76.84 77.09 77.16 77.42 78.45 78.41 78.20 78.11 78.32 78.53 78.56 78.57 78.41 78.35 78.48 78.65 78.57 78.30 77.76 77.40 77.22 77.32 77.50 77.31 77.12 77.01 77.27 77.08 76.84 76.84 76.41 76.07 76.23 76.31 76.05 75.87 76.46 74.36 75.49
76.44 75.22 75.77 76.20 76.55 76.93 78.20 77.64 78.66 78.17 78.72 78.56 78.40 78.64 78.78 78.88 78.42 77.80 78.18 78.57 78.21 78.13 78.17 77.71 77.43 76.71 76.18 76.01 76.21 76.13 76.23 76.17 75.68 75.60 76.20 76.92 76.52 76.01 75.46 76.32 77.61 75.60 75.40
75.72 76.58 76.18 76.86 76.61 77.09 77.82 77.65 78.53 78.78 78.89 78.79 78.72 79.01 78.69 78.80 78.51 77.69 77.85 77.86 78.49 77.99 77.88 77.39 76.62 75.88 76.54 76.76 76.48 76.89 76.90 76.66 76.75 74.79 75.54 73.92 75.52 75.81 76.14 76.36 76.20 75.86 75.73
75.82 75.08 77.08 76.64 76.85 76.87 77.61 78.06 78.44 79.09 78.85 78.89 78.64 78.86 78.96 78.95 78.69 77.96 77.71 77.67 77.94 77.67 77.12 76.54 76.07 76.57 77.02 76.90 76.73 76.68 76.50 76.76 74.99 74.12 75.21 75.12 75.72 76.49 76.31 75.57 74.97 74.62 74.64
75.43 75.17 76.94 76.65 77.41 76.10 76.89 78.16 78.74 78.97 78.56 78.28 79.20 79.13 78.96 78.59 78.40 77.54 77.69 77.58 77.50 77.01 76.38 76.38 76.63 76.32 76.48 76.50 76.41 76.42 76.58 76.26 74.56 75.29 75.25 75.71 75.52 76.65 75.85 74.73 75.86 75.46 75.26
75.52 75.10 76.12 76.55 76.22 76.01 77.58 78.68 78.76 78.99 78.61 78.55 79.15 79.04 78.57 77.77 77.45 76.96 76.90 77.25 77.26 76.93 76.41 76.85 76.82 76.96 76.59 76.52 76.40 75.97 75.97 74.69 75.18 74.82 74.52 74.92 76.00 76.15 75.57 74.35 75.70 75.55 75.21
74.66 74.25 75.60 76.51 76.43 76.55 77.51 78.71 78.71 79.10 78.89 78.32 79.09 78.52 78.25 77.93 77.73 77.47 76.84 76.26 76.59 77.00 76.87 76.46 76.60 76.51 75.99 75.49 75.18 75.49 75.70 75.67 75.62 74.15 74.92 74.80 75.38 75.04 75.73 74.65 74.39 75.19 75.34
74.95 74.04 74.09 74.97 75.68 75.68 76.90 77.67 78.63 78.67 77.80 78.21 78.23 77.82 77.95 77.86 77.42 77.31 77.16 76.78 76.01 76.37 76.84 76.81 76.65 76.21 75.88 75.29 75.16 75.84 76.60 75.60 75.75 73.12 74.46 75.54 75.24 74.29 74.46 73.23 73.74 73.00 73.81
75.43 75.57 76.05 74.90 74.89 75.23 75.06 76.60 77.59 78.18 78.26 78.64 78.05 77.65 77.38 77.29 76.99 77.14 77.38 76.95 76.82 75.79 75.93 76.34 76.06 75.68 75.46 75.05 74.85 75.62 76.63 75.73 75.97 75.05 74.24 75.68 74.93 75.48 75.68 74.97 74.42 74.65 74.67
72.22 73.48 74.33 76.14 76.11 74.53 75.12 75.91 77.10 78.19 78.29 77.10 76.93 76.92 76.76 77.22 77.12 76.39 77.25 76.98 76.79 76.90 75.60 75.52 75.54 75.58 75.28 74.80 74.58 75.27 75.93 76.65 76.68 76.41 76.71 76.23 75.68 74.81 74.10 73.34 73.57 73.34 74.28
73.70 71.89 73.96 74.14 74.75 75.69 76.10 76.52 78.09 77.82 77.75 77.02 76.48 76.52 76.51 75.48 75.85 76.91 76.36 76.03 76.34 76.31 75.82 75.51 75.01 74.82 74.51 74.96 74.44 75.15 76.13 77.15 76.89 77.75 78.04 74.94 75.08 75.85 75.28 74.40 73.27 72.76 72.24
72.43 72.76 71.39 72.94 73.74 74.13 74.77 77.33 77.70 75.78 73.97 75.80 76.08 76.00 76.77 76.11 77.30 76.85 76.39 76.03 75.96 75.80 75.85 76.24 75.65 75.23 74.71 75.08 76.12 75.05 76.13 77.26 77.30 77.95 77.72 75.47 75.03 75.66 75.77 75.85 75.09 74.44 74.07
73.04 72.98 74.04 74.44 73.46 73.47 73.46 76.32 77.02 76.73 76.82 76.54 77.22 76.86 76.95 77.49 77.26 76.76 76.69 76.57 77.22 76.68 76.59 76.60 76.76 75.88 73.55 74.24 75.15 75.66 76.46 76.10 76.29 77.49 77.16 75.60 75.12 75.77 75.84 76.23 76.13 75.16 74.65
73.15 73.62 74.18 75.33 75.25 75.81 75.82 75.47 76.39 76.18 76.44 76.63 76.50 77.58 77.79 75.83 77.20 76.81 76.19 76.22 77.14 76.72 77.65 77.01 75.47 76.05 74.97 74.13 74.26 74.73 75.50 75.37 75.49 76.33 77.69 75.89 75.49 75.73 76.19 76.22 76.59 76.03 75.26
73.33 74.18 74.96 76.01 76.38 76.21 76.68 76.40 76.90 75.90 75.79 76.97 77.07 77.40 76.52 75.97 76.93 76.76 76.98 75.68 76.52 76.92 76.82 77.08 76.37 75.69 75.38 74.66 73.87 73.28 73.92 74.82 75.81 76.07 76.59 76.95 75.86 76.11 76.25 76.40 76.55 76.97 76.11
73.31 74.18 75.55 76.42 77.30 77.17 76.99 77.65 77.10 77.33 77.35 77.31 76.67 76.44 77.33 76.72 76.97 75.65 75.67 75.70 77.50 78.46 77.89 76.75 76.06 75.87 75.02 73.90 73.74 73.74 73.70 74.52 75.39 76.06 75.72 76.85 76.60 77.02 76.91 76.69 77.09 77.74 77.59
73.49 74.63 74.94 76.02 77.01 77.33 77.55 77.66 77.27 76.50 76.29 76.19 76.34 77.78 77.82 78.13 77.08 76.81 75.35 75.15 76.05 78.97 77.20 76.94 76.89 76.05 75.20 74.83 74.62 74.25 74.42 74.51 75.47 75.94 75.92 75.68 76.24 76.60 77.27 77.37 77.36 77.43 77.58
73.47 74.21 75.72 75.30 76.00 76.88 77.20 77.08 76.57 76.56 76.76 76.57 76.57 76.79 77.36 77.78 77.60 77.05 75.56 75.30 75.67 76.30 76.14 76.12 75.23 74.66 74.77 74.77 74.43 74.46 74.07 74.56 75.37 76.17 75.74 75.74 75.25 75.14 77.28 77.40 77.20 77.28 77.18
74.11 74.56 75.12 76.13 75.69 76.60 77.41 77.30 77.20 77.63 76.68 76.23 76.27 76.31 77.39 77.59 77.81 77.42 76.62 76.56 77.80 76.47 75.81 75.60 75.18 75.21 74.43 74.23 74.10 74.56 74.67 74.13 74.70 74.55 74.93 75.59 76.12 75.71 75.58 77.25 77.23 77.00 77.30
74.26 74.98 75.62 75.68 76.48 77.15 76.82 77.13 76.37 75.89 76.37 76.78 76.60 76.31 77.04 77.20 77.74 77.86 77.42 78.19 79.15 76.57 75.77 75.34 75.14 75.02 74.41 73.79 73.32 72.82 74.04 74.58 74.56 74.21 74.39 74.86 75.13 75.52 75.68 75.89 75.78 76.74 76.95
75.07 75.16 75.11 75.43 76.70 76.35 75.43 74.25 74.09 73.72 75.29 76.08 76.98 77.78 77.97 77.87 77.65 77.91 77.32 77.58 77.76 77.27 78.05 78.08 77.21 75.99 74.73 74.66 72.71 71.71 72.67 73.32 74.25 74.62 74.85 74.85 75.12 75.19 75.62 76.06 76.23 75.50 75.56
74.33 75.11 75.50 75.71 76.35 76.38 75.11 75.43 74.94 74.91 75.41 76.53 77.47 78.06 78.33 78.45 78.67 78.34 78.53 77.78 77.71 76.70 76.99 77.86 78.14 76.11 75.14 77.97 72.60 71.34 68.11 70.29 72.82 73.90 74.62 74.35 75.14 75.29 75.25 75.74 76.41 76.78 76.91
74.12 75.09 75.46 76.52 76.36 76.68 76.42 75.81 76.10 76.33 76.10 75.61 76.38 76.97 78.18 78.70 78.66 78.74 78.45 79.67 78.30 78.92 75.10 77.15 78.29 76.27 73.59 78.09 76.01 73.08 68.57 66.81 70.08 73.02 74.08 74.38 75.16 74.89 75.41 76.03 76.45 76.75 77.34
74.22 75.46 76.62 77.27 77.37 77.15 77.73 76.93 77.16 75.34 75.20 75.41 77.17 76.72 76.33 78.60 78.28 78.44 78.68 78.70 78.72 77.17 77.40 76.33 77.46 78.46 77.48 72.76 77.37 77.04 76.25 74.51 69.13 68.00 71.92 73.15 75.10 74.96 76.53 75.45 75.40 76.71 77.70
74.41 75.15 76.37 77.67 78.17 78.30 78.43 78.14 76.84 76.85 76.32 76.80 76.95 77.38 78.61 79.02 78.95 78.77 78.14 78.37 78.69 77.96 78.33 77.19 77.24 76.85 75.61 74.95 75.45 75.33 75.27 74.35 74.60 71.44 68.42 70.44 72.58 73.32 74.63 75.27 75.48 75.62 76.55
74.07 74.33 75.41 76.84 77.91 78.40 78.27 78.24 78.06 77.46 77.41 76.94 76.81 76.57 76.04 75.78 76.42 78.02 78.78 78.99 79.32 78.87 77.97 78.26 78.83 77.83 76.97 76.41 75.36 75.63 73.99 71.21 70.33 70.39 69.78 70.35 70.62 72.36 73.58 74.16 74.78 75.33 75.89
MSLP
1014.77 1014.84 1014.91 1014.87 1015.09 1015.21 1015.47 1015.76 1015.84 1016.07 1016.28 1016.37 1016.76 1016.95 1017.08 1017.27 1017.45 1017.64 1017.70 1017.81 1017.93 1017.99 1018.27 1018.52 1018.60 1018.63 1018.83 1018.94 1019.12 1019.07 1019.21 1019.32 1019.35 1019.43 1019.53 1019.66 1019.81 1019.83 1019.85 1019.82 1019.49 1019.60 1020.33
1014.10 1014.76 1015.31 1015.49 1015.59 1015.72 1015.92 1016.21 1016.22 1016.45 1016.76 1016.85 1017.11 1017.32 1017.42 1017.52 1017.81 1018.06 1018.11 1018.14 1018.20 1018.32 1018.43 1018.69 1019.02 1019.11 1019.32 1019.47 1019.55 1019.64 1019.61 1019.68 1019.71 1019.64 1019.63 1019.79 1019.98 1020.11 1020.09 1019.99 1019.61 1020.30 1020.61
1014.17 1014.84 1015.49 1015.63 1015.94 1016.07 1016.31 1016.63 1016.71 1016.89 1017.16 1017.33 1017.46 1017.54 1017.80 1017.69 1018.04 1018.33 1018.49 1018.51 1018.50 1018.65 1018.74 1018.97 1019.32 1019.57 1019.57 1019.70 1019.78 1019.83 1019.94 1020.00 1020.07 1019.83 1019.49 1018.76 1019.69 1020.41 1020.43 1020.50 1020.63 1020.84 1020.93
1014.64 1015.22 1015.49 1016.02 1016.33 1016.59 1016.76 1017.10 1017.16 1017.38 1017.64 1017.78 1017.94 1018.05 1018.09 1018.19 1018.35 1018.56 1018.77 1018.81 1018.79 1019.04 1019.04 1019.22 1019.42 1019.67 1019.93 1020.11 1020.09 1020.10 1020.29 1020.32 1020.35 1019.80 1018.54 1018.64 1019.40 1020.61 1020.69 1020.89 1020.94 1021.06 1021.17
1014.76 1015.86 1016.03 1016.40 1016.68 1017.12 1017.35 1017.44 1017.58 1017.81 1018.01 1018.25 1018.25 1018.45 1018.41 1018.70 1018.84 1018.92 1019.05 1019.26 1019.09 1019.37 1019.53 1019.47 1019.64 1019.81 1020.00 1020.30 1020.55 1020.48 1020.56 1020.54 1020.37 1019.57 1019.07 1018.87 1019.26 1020.74 1020.99 1021.10 1021.18 1021.22 1021.24
1015.09 1016.37 1016.65 1016.91 1017.15 1017.46 1017.61 1017.82 1018.03 1018.26 1018.44 1018.65 1018.61 1018.69 1018.87 1019.18 1019.33 1019.35 1019.50 1019.68 1019.59 1019.58 1019.80 1019.80 1019.92 1020.11 1020.38 1020.57 1020.68 1020.78 1020.64 1020.52 1020.11 1019.57 1019.61 1019.88 1019.67 1021.06 1021.24 1021.26 1021.34 1021.43 1021.51
1016.45 1017.07 1017.26 1017.23 1017.60 1017.89 1018.03 1018.19 1018.43 1018.61 1018.82 1018.95 1019.01 1019.16 1019.26 1019.55 1019.74 1019.69 1019.86 1019.97 1020.02 1020.02 1020.13 1020.17 1020.23 1020.47 1020.62 1020.72 1020.80 1020.83 1020.74 1020.56 1019.42 1019.39 1019.76 1019.76 1020.54 1021.32 1021.40 1021.53 1021.63 1021.71 1021.79
1016.61 1017.52 1018.01 1018.11 1018.36 1018.74 1018.54 1018.79 1018.89 1019.03 1019.13 1019.28 1019.40 1019.49 1019.72 1019.91 1019.99 1020.03 1020.19 1020.26 1020.39 1020.47 1020.48 1020.50 1020.54 1020.72 1020.84 1020.96 1020.95 1020.88 1020.66 1020.39 1019.45 1019.63 1019.81 1019.72 1021.18 1021.36 1021.48 1021.65 1021.79 1021.87 1021.89
1016.89 1017.51 1018.27 1018.60 1019.00 1019.07 1019.19 1019.34 1019.43 1019.41 1019.44 1019.61 1019.73 1019.90 1020.08 1020.21 1020.28 1020.41 1020.42 1020.47 1020.66 1020.73 1020.97 1020.83 1020.81 1020.91 1021.07 1021.15 1021.09 1020.97 1020.82 1020.46 1019.38 1019.64 1019.67 1019.54 1021.34 1021.49 1021.45 1021.62 1021.75 1021.83 1021.85
1017.76 1018.00 1018.20 1018.50 1018.91 1019.61 1019.95 1019.96 1019.55 1019.69 1019.74 1019.92 1020.05 1020.19 1020.30 1020.42 1020.50 1020.61 1020.47 1020.77 1020.89 1020.94 1021.19 1021.10 1021.09 1021.13 1021.15 1021.25 1021.14 1020.97 1020.70 1020.27 1018.63 1019.19 1019.38 1020.20 1021.32 1021.55 1021.62 1021.64 1021.69 1021.69 1021.72
1017.36 1018.00 1018.20 1018.56 1019.33 1019.80 1019.90 1019.79 1019.79 1019.72 1019.74 1019.99 1020.24 1020.33 1020.28 1019.93 1020.03 1019.85 1020.62 1021.00 1020.96 1021.08 1021.19 1021.20 1021.24 1021.28 1021.24 1021.06 1021.02 1020.94 1020.44 1019.00 1019.04 1019.11 1018.99 1020.58 1021.13 1021.39 1021.44 1021.59 1021.70 1021.73 1021.74
1017.12 1018.13 1018.64 1018.67 1019.51 1019.46 1019.77 1019.99 1020.02 1019.96 1019.82 1019.90 1019.88 1020.13 1019.66 1020.04 1020.15 1019.96 1020.62 1021.01 1021.07 1021.08 1021.07 1021.11 1021.17 1021.31 1021.16 1019.64 1019.74 1020.44 1019.23 1019.17 1018.91 1019.01 1019.02 1020.47 1020.92 1021.14 1021.25 1021.25 1021.44 1021.59 1021.65
1016.77 1017.50 1018.37 1018.29 1019.46 1019.14 1019.36 1020.18 1020.07 1020.16 1020.14 1019.70 1020.22 1020.14 1020.10 1020.23 1020.40 1020.14 1020.13 1020.10 1020.19 1020.50 1019.56 1020.08 1020.69 1019.94 1019.99 1019.97 1019.59 1019.39 1019.35 1019.38 1018.71 1018.55 1019.18 1020.14 1020.54 1020.80 1020.90 1021.04 1021.12 1021.33 1021.48
1016.72 1017.17 1017.85 1018.12 1018.86 1018.90 1019.10 1019.62 1020.04 1020.02 1019.95 1019.75 1020.26 1020.52 1020.56 1020.45 1020.49 1020.61 1020.29 1020.39 1020.45 1020.18 1020.48 1020.52 1019.84 1019.99 1020.31 1020.29 1020.20 1019.98 1019.64 1019.27 1018.84 1018.68 1018.70 1019.70 1020.27 1020.49 1020.60 1020.69 1020.87 1021.05 1021.25
1016.89 1017.32 1017.72 1018.43 1018.89 1019.45 1019.84 1019.59 1019.58 1019.62 1020.06 1019.83 1020.29 1020.52 1020.55 1020.39 1020.34 1020.41 1020.39 1020.70 1020.59 1020.40 1020.14 1020.46 1020.31 1020.36 1020.28 1020.27 1020.13 1019.99 1019.66 1019.25 1019.18 1018.94 1018.53 1019.31 1019.84 1020.14 1020.32 1020.38 1020.53 1020.60 1020.73
1017.02 1017.42 1017.83 1018.31 1018.68 1019.10 1019.31 1019.51 1019.56 1019.55 1019.59 1019.70 1019.62 1019.97 1020.38 1020.40 1020.37 1020.30 1020.23 1020.11 1020.21 1020.63 1020.70 1020.58 1020.25 1020.38 1020.51 1020.13 1019.69 1019.82 1019.56 1019.29 1019.12 1019.04 1018.62 1018.35 1019.21 1019.69 1019.96 1020.09 1020.01 1020.18 1020.23
1016.90 1017.35 1017.82 1018.37 1018.71 1019.12 1019.39 1019.52 1019.59 1019.27 1019.31 1019.14 1019.14 1019.58 1019.98 1020.39 1020.48 1020.66 1020.43 1020.26 1019.85 1020.12 1020.51 1020.31 1020.42 1020.20 1020.27 1019.91 1019.42 1019.34 1019.49 1019.45 1018.76 1018.82 1018.84 1018.48 1018.09 1018.87 1019.16 1019.50 1019.59 1019.64 1019.77
1016.68 1017.35 1017.81 1018.04 1018.43 1018.89 1019.16 1019.30 1019.24 1019.04 1019.02 1018.92 1018.91 1019.05 1019.40 1019.72 1019.91 1019.98 1019.94 1019.90 1019.95 1020.08 1019.91 1019.94 1020.10 1020.00 1019.96 1019.74 1019.41 1018.85 1018.46 1018.82 1018.52 1018.58 1018.58 1018.24 1017.89 1017.60 1018.15 1018.50 1018.82 1019.02 1019.10
1016.55 1017.23 1017.83 1018.19 1018.36 1018.69 1018.96 1019.01 1019.18 1019.23 1019.21 1018.86 1018.84 1018.85 1019.04 1019.38 1019.47 1019.56 1019.28 1019.41 1019.83 1019.83 1019.86 1019.71 1019.97 1019.99 1019.79 1019.69 1019.22 1018.65 1018.28 1018.10 1017.92 1017.72 1017.72 1017.89 1017.80 1017.68 1017.34 1017.22 1017.84 1018.12 1018.37
1016.31 1017.00 1017.63 1018.00 1018.30 1018.60 1018.70 1019.05 1018.79 1018.69 1018.73 1018.65 1018.56 1018.55 1018.77 1018.92 1019.18 1019.26 1018.74 1018.85 1019.17 1019.17 1019.47 1019.61 1019.77 1019.79 1019.72 1019.36 1018.90 1018.35 1018.15 1017.65 1017.27 1017.26 1017.07 1017.10 1016.90 1016.84 1016.90 1017.01 1016.98 1016.91 1017.26
1015.90 1016.63 1017.17 1017.64 1017.94 1018.34 1018.48 1018.43 1018.34 1018.08 1018.05 1018.01 1017.95 1018.16 1018.50 1018.64 1018.75 1018.81 1018.52 1018.28 1018.31 1018.40 1018.54 1018.98 1019.10 1018.97 1018.86 1019.18 1019.21 1018.62 1018.10 1017.49 1017.00 1016.66 1016.29 1016.20 1016.13 1016.05 1016.09 1016.36 1016.58 1016.32 1015.98
1015.29 1016.04 1016.71 1017.12 1017.58 1017.96 1017.90 1017.98 1017.87 1017.77 1017.55 1017.45 1017.42 1017.67 1017.92 1018.04 1018.16 1018.25 1018.11 1017.86 1017.60 1017.76 1018.05 1018.33 1018.55 1018.47 1017.96 1018.30 1018.18 1017.77 1017.12 1016.32 1015.75 1015.66 1015.62 1015.64 1015.51 1015.75 1015.53 1015.57 1015.76 1015.91 1015.82
1014.63 1015.28 1015.85 1016.51 1016.99 1017.44 1017.67 1017.77 1017.94 1018.01 1017.84 1017.54 1017.48 1017.28 1017.09 1017.37 1017.77 1017.72 1017.58 1017.81 1017.75 1017.80 1017.66 1017.64 1017.97 1017.87 1017.68 1017.79 1017.90 1017.90 1016.49 1015.56 1014.93 1015.01 1015.26 1015.39 1015.53 1015.46 1015.23 1014.96 1015.08 1015.21 1015.30
1013.74 1014.26 1015.10 1015.85 1016.51 1016.99 1017.43 1017.46 1017.46 1017.11 1016.87 1016.56 1017.03 1017.20 1017.41 1017.13 1017.10 1017.19 1017.04 1017.05 1017.09 1016.88 1017.11 1017.29 1017.42 1017.66 1017.67 1017.05 1017.00 1017.27 1017.03 1016.60 1015.99 1015.13 1014.66 1014.32 1014.74 1015.01 1014.97 1014.76 1014.40 1014.38 1014.49
1012.86 1013.50 1014.40 1015.30 1016.01 1016.56 1016.91 1017.20 1016.92 1016.90 1016.59 1016.50 1016.90 1016.93 1016.86 1016.80 1016.84 1016.92 1016.88 1016.78 1017.11 1016.83 1016.50 1016.81 1016.80 1016.80 1016.61 1016.76 1016.41 1016.34 1016.51 1016.65 1016.65 1016.48 1015.06 1014.09 1013.32 1013.14 1013.09 1013.41 1013.35 1013.20 1013.17
1012.34 1013.00 1013.71 1014.77 1015.51 1015.99 1016.35 1016.57 1016.74 1016.62 1016.62 1016.46 1016.22 1016.32 1016.09 1015.85 1015.75 1015.94 1016.18 1016.39 1016.33 1016.31 1016.26 1016.27 1016.25 1016.30 1016.17 1015.90 1015.51 1015.33 1015.69 1015.64 1015.44 1015.19 1013.72 1013.48 1012.99 1012.19 1012.18 1012.06 1012.11 1012.20 1012.35
Wind_Speed
11 9 19 19 20 23 23 22 22 21 21 21 19 18 18 17 16 16 16 16 15 15 17 16 16 16 15 15 14 16 16 16 16 16 16 15 14 14 12 8 13 15 11
15 14 22 19 20 21 21 20 21 21 19 19 18 17 17 18 17 16 15 14 16 14 16 16 16 16 15 14 13 14 14 14 14 13 15 15 14 12 10 13 17 13 11
14 16 17 19 18 20 19 19 20 19 18 17 17 17 16 17 17 16 15 15 15 16 16 17 15 13 14 13 13 13 12 12 11 6 9 11 13 11 12 13 14 12 10
15 8 16 19 20 18 19 18 19 18 18 17 17 16 16 16 16 16 15 14 16 14 15 16 15 14 13 13 12 12 11 11 5 5 6 9 13 11 12 11 11 10 10
15 13 16 20 19 19 18 18 18 17 17 17 17 16 17 16 15 15 15 13 14 13 13 15 14 15 12 11 11 12 11 9 2 2 7 8 10 11 11 10 11 8 5
16 9 15 19 21 20 17 17 17 16 16 15 17 16 16 15 14 14 13 11 12 13 12 14 13 12 11 10 8 7 7 2 9 8 7 6 13 9 8 7 8 8 8
16 7 13 15 20 18 16 15 15 14 15 15 15 15 14 13 12 13 13 11 11 11 11 12 12 10 8 6 5 6 5 5 4 6 6 6 10 6 6 6 6 6 6
17 12 10 13 19 16 11 13 13 13 15 14 14 14 13 12 11 12 11 10 10 9 9 9 9 8 6 5 5 7 6 4 7 6 5 6 9 5 6 5 4 4 5
16 17 16 16 13 16 10 8 11 12 12 12 12 12 11 10 9 9 10 10 8 9 5 7 7 5 4 4 5 6 7 4 3 7 2 3 8 2 5 5 4 2 4
12 11 11 14 15 9 10 11 11 10 9 10 9 9 9 8 8 7 9 9 8 8 5 5 4 3 2 3 4 5 6 8 1 6 4 8 7 3 2 3 3 3 2
12 8 9 12 13 8 9 9 11 13 12 9 7 7 6 4 3 8 11 5 5 5 3 3 2 1 2 6 3 3 11 3 5 2 2 11 6 5 4 4 4 4 4
16 12 12 14 9 10 6 4 4 4 5 6 4 5 2 4 4 6 5 3 3 2 3 3 3 3 8 5 7 9 6 2 3 2 2 9 7 8 7 7 6 7 6
15 13 14 11 12 11 10 4 4 2 2 4 4 3 3 1 1 1 2 2 1 6 4 8 9 7 2 6 4 4 4 6 3 2 8 9 9 11 11 10 9 9 9
13 13 14 11 11 6 7 9 3 3 2 2 2 2 1 3 0 3 3 4 2 2 1 5 4 4 5 5 7 7 7 6 4 4 3 9 8 11 13 12 11 11 11
12 12 10 10 9 9 8 5 4 4 4 3 5 5 4 3 2 3 2 3 4 5 4 3 3 4 5 6 6 7 8 8 7 6 4 11 9 11 13 14 13 13 13
12 11 11 10 9 9 7 5 5 4 6 6 5 4 4 4 3 4 5 3 2 3 1 4 4 4 4 6 6 7 8 8 8 7 8 2 11 11 13 14 14 15 15
12 13 12 11 10 9 8 7 6 6 6 5 5 4 6 6 6 5 5 5 4 1 3 3 3 5 6 7 7 7 7 10 10 8 8 8 6 15 15 15 15 16 16
12 12 11 10 11 10 8 6 5 5 5 5 5 5 6 7 7 6 5 5 4 4 5 4 5 5 6 6 6 8 7 8 10 9 9 9 9 9 13 17 17 16 16
13 13 12 11 11 10 9 7 7 6 7 6 6 7 7 8 8 7 7 6 6 5 5 5 5 6 7 7 8 8 8 8 10 10 10 10 11 11 10 9 18 17 18
12 12 12 11 11 10 7 7 7 7 7 7 7 7 7 7 9 8 8 8 6 7 6 7 7 6 8 8 8 8 9 9 9 10 11 11 13 13 11 12 10 11 20
12 12 13 13 12 9 9 9 8 8 7 7 7 8 9 9 10 9 9 9 9 9 8 8 8 9 7 7 6 8 9 12 12 11 10 11 12 13 13 11 9 9 8
14 13 13 13 13 12 9 8 7 5 6 6 6 7 9 11 11 10 10 10 10 9 9 10 9 8 9 6 7 7 8 7 9 10 7 9 11 9 11 11 12 12 12
14 15 15 14 13 12 11 7 6 7 7 8 7 8 9 11 12 11 12 10 11 8 10 11 9 12 10 6 10 7 6 7 5 5 7 7 5 6 8 9 10 11 12
15 15 14 14 13 12 11 9 9 9 8 6 5 6 8 10 10 12 11 11 11 11 10 11 9 9 9 12 6 8 11 11 9 9 8 7 8 9 10 10 10 10 11
14 13 12 12 11 11 10 11 9 10 8 6 5 9 8 9 10 10 11 12 10 10 10 13 13 13 10 11 10 8 9 7 9 9 11 11 10 10 10 11 11 11 13
12 11 10 11 10 11 11 11 12 11 8 7 5 6 6 5 5 6 8 10 10 11 12 11 12 14 13 12 12 10 11 8 9 8 11 14 14 12 11 11 11 11 11
Wind_Direction
135 137 108 108 111 110 109 110 108 105 105 105 103 100 94 93 93 99 99 99 99 100 102 103 103 96 93 97 101 101 99 99 101 101 102 101 99 100 104 114 152 101 101
123 123 120 121 116 112 111 111 110 110 106 107 107 104 101 98 95 100 101 102 99 101 101 96 90 90 93 97 99 102 104 103 103 110 114 98 101 97 94 60 57 94 96
120 128 127 129 124 117 113 115 114 108 109 108 109 107 105 100 97 101 103 97 99 97 99 95 94 94 98 99 98 96 99 102 97 121 187 107 100 104 95 91 91 100 96
118 120 126 130 126 126 121 117 115 110 108 105 102 103 100 95 98 98 94 101 100 101 102 102 103 97 84 82 91 93 86 92 101 224 157 121 103 103 102 97 104 107 107
124 126 132 131 128 125 123 115 110 108 110 108 102 95 90 89 91 94 96 95 100 99 103 107 106 103 99 93 84 77 79 89 211 236 71 66 102 105 108 120 133 129 107
104 108 126 128 129 130 122 116 110 110 111 112 107 102 98 95 95 91 91 89 91 101 109 106 106 104 100 88 89 60 67 92 258 83 102 84 65 103 111 89 91 97 99
108 127 121 124 116 117 119 122 118 111 112 112 106 100 93 92 90 94 92 92 91 98 98 106 106 103 102 91 58 20 6 300 327 92 88 70 89 95 89 101 108 107 104
125 109 77 100 110 115 134 127 122 120 116 111 103 98 97 91 86 84 88 89 94 93 102 106 101 99 94 63 45 20 20 303 177 76 93 106 103 134 125 117 117 134 134
113 123 134 140 131 133 131 136 132 128 118 110 107 102 99 93 92 89 81 86 91 97 92 100 99 93 68 38 17 17 25 335 61 81 70 124 115 98 139 137 145 172 187
110 136 126 135 134 152 146 160 145 135 125 125 124 116 109 109 103 106 127 88 80 93 96 98 100 82 49 350 350 349 318 242 156 102 146 81 126 177 212 190 200 210 268
137 141 100 126 135 147 144 167 160 147 146 140 143 121 157 108 152 163 73 92 86 89 93 96 79 357 289 240 239 314 287 39 44 6 14 115 160 208 217 218 217 216 227
137 121 127 149 138 152 143 165 163 167 153 143 162 175 186 73 61 23 92 122 138 135 185 160 152 254 248 251 178 204 252 31 237 343 55 133 183 211 227 227 229 228 220
137 152 151 150 159 177 134 142 152 128 159 139 185 214 81 67 60 265 357 206 311 161 239 198 185 217 319 300 291 299 334 271 290 265 104 150 198 217 221 229 227 235 240
153 148 158 153 158 166 156 170 132 137 233 206 227 261 334 269 221 309 338 340 248 265 353 321 319 6 299 279 281 294 272 278 292 328 104 158 208 224 226 224 230 230 237
157 155 156 165 173 175 193 183 207 207 194 228 198 211 235 267 324 282 286 295 307 327 334 255 272 311 307 267 271 268 272 280 295 290 304 157 199 224 228 228 234 234 232
165 169 169 181 186 197 216 212 221 210 204 220 235 224 229 259 259 269 266 274 259 289 281 311 325 310 286 285 268 268 268 269 268 287 293 262 180 210 230 235 232 237 234
176 176 179 190 192 199 213 215 219 227 244 248 248 233 244 225 224 236 256 274 289 271 256 256 247 253 250 276 250 247 254 274 262 266 276 278 233 194 210 225 236 240 246
184 187 191 193 188 198 202 212 239 253 251 250 257 257 242 249 251 248 255 261 262 260 277 214 219 243 274 247 260 270 254 239 266 260 266 269 275 289 196 210 221 233 240
191 186 197 203 203 201 205 222 224 232 244 255 254 255 248 255 254 256 255 244 250 241 241 252 254 246 259 251 259 261 257 257 254 255 254 264 265 266 273 217 209 219 234
188 194 199 203 211 203 216 218 237 236 235 240 244 248 251 247 249 253 263 259 244 233 235 230 233 243 261 282 291 281 276 270 257 254 259 253 256 260 261 266 257 229 216
192 194 201 203 204 204 205 219 222 235 231 243 251 250 247 243 245 247 256 259 252 256 258 253 245 232 245 236 254 264 258 259 256 256 257 260 262 264 255 254 258 260 251
194 199 201 208 204 207 210 221 248 259 251 260 261 256 250 251 254 258 266 268 268 279 269 257 252 258 256 214 247 276 279 257 232 234 259 269 265 269 271 253 252 259 262
202 200 205 207 208 210 228 214 219 248 248 255 253 252 240 245 254 252 247 255 265 257 264 264 257 254 264 246 243 247 274 255 273 237 222 255 272 260 260 260 256 259 252
204 207 207 204 207 208 210 224 234 260 273 293 270 277 282 292 286 273 265 263 258 267 268 262 266 257 264 263 257 230 260 285 287 287 286 276 230 239 236 257 263 242 247
205 204 202 209 208 212 204 229 228 236 260 268 254 259 271 263 258 267 276 276 268 264 263 262 262 258 255 255 249 249 242 245 255 257 278 272 270 257 240 235 243 254 258
207 206 193 196 207 207 213 217 231 252 260 279 277 292 283 286 277 273 276 271 271 269 272 269 268 259 258 265 262 261 246 233 220 224 230 247 255 258 257 256 253 256 255